Weather History for KDLH - August, 2014

Change the Weather History Date:

Thursday, August 7, 2014

  Actual Average Record
Temperature  
Mean Temperature 64 °F 66 °F  
Max Temperature 75 °F 76 °F 95 °F (1949)
Min Temperature 52 °F 56 °F 38 °F (1972)
Degree Days  
Heating Degree Days 1 2  
Month to date heating degree days 4 14  
Since 1 June heating degree days 206 256  
Since 1 July heating degree days 44 77  
Cooling Degree Days 0 3  
Month to date cooling degree days 9 21  
Year to date cooling degree days 141 145  
Since 1 June cooling degree days 123 141  
Growing Degree Days 14 (Base 50)    
Moisture  
Dew Point 55 °F    
Average Humidity 75    
Maximum Humidity 93    
Minimum Humidity 57    
Precipitation  
Precipitation 0.00 in 0.12 in 1.84 in (1931)
Month to date precipitation 0.01 0.79  
Year to date precipitation 20.33 17.79  
Snow  
Snow 0.00 in 0.00 in 0.00 in (2002)
Month to date snowfall 0.0 0.0  
Since 1 June snowfall T 0.0  
Since 1 July snowfall 0.0 0.0  
Snow Depth 0.00 in    
Sea Level Pressure  
Sea Level Pressure 30.12 in    
Wind  
Wind Speed 7 mph (ESE)    
Max Wind Speed 15 mph    
Max Gust Speed 20 mph    
Visibility 8 miles    
Events Fog    
T = Trace of Precipitation, MM = Missing Value Source: NWS Daily Summary

Daily Weather History Graph

Daily Weather History Graph

Search for Another Location

Airport or City:

Trip Planner

Search our weather history database for the weather conditions in past years. The results will help you decide how hot, cold, wet, or windy it might be!

Date:

Astronomy

Aug. 07, 2014 Rise Set
Actual Time 5:56 AM CDT 8:32 PM CDT
Civil Twilight 5:21 AM CDT 9:06 PM CDT
Nautical Twilight 4:38 AM CDT 9:49 PM CDT
Astronomical Twilight 3:47 AM CDT 10:39 PM CDT
Moon 5:51 PM CDT (8/7) 2:23 AM CDT (8/7)
Length of Visible Light 15h 44m
Length of Day
14h 35m
Waxing Gibbous, 87% of the Moon is Illuminated
Aug 7
Waxing Gibbous
Aug 10
Full
Aug 17
Last Quarter
Aug 25
New
Sep 2
First Quarter

Hourly Weather History & Observations

Time (CDT) Temp. Dew Point Humidity Pressure Visibility Wind Dir Wind Speed Gust Speed Precip Events Conditions
12:55 AM 57.0 °F 52.0 °F 83% 30.15 in 10.0 mi East 5.8 mph - N/A   Clear
1:55 AM 57.0 °F 52.0 °F 83% 30.14 in 10.0 mi East 5.8 mph - N/A   Clear
2:55 AM 57.0 °F 51.1 °F 81% 30.13 in 10.0 mi ESE 3.5 mph - N/A   Clear
3:55 AM 55.9 °F 51.1 °F 84% 30.14 in 10.0 mi East 3.5 mph - N/A   Clear
4:55 AM 55.0 °F 51.1 °F 86% 30.13 in 10.0 mi ENE 3.5 mph - N/A   Clear
5:55 AM 54.0 °F 48.9 °F 83% 30.14 in 10.0 mi East 4.6 mph - N/A   Partly Cloudy
6:13 AM 55.0 °F 51.1 °F 86% 30.14 in 10.0 mi East 5.8 mph - N/A   Partly Cloudy
6:51 AM 57.2 °F 55.4 °F 94% 30.13 in 2.0 mi East 4.6 mph - N/A   Scattered Clouds
6:55 AM 57.0 °F 55.0 °F 93% 30.14 in 0.8 mi East 4.6 mph - N/A   Scattered Clouds
6:57 AM 57.0 °F 55.0 °F 93% 30.13 in 0.5 mi East 5.8 mph - N/A Fog Fog
7:00 AM 57.0 °F 55.0 °F 93% 30.14 in 0.2 mi East 5.8 mph - N/A Fog Fog
7:22 AM 57.9 °F 55.9 °F 93% 30.14 in 0.2 mi East 5.8 mph - N/A Fog Fog
7:26 AM 57.9 °F 55.9 °F 93% 30.14 in 1.5 mi East 4.6 mph - N/A   Mostly Cloudy
7:29 AM 57.9 °F 57.0 °F 97% 30.14 in 3.0 mi East 5.8 mph - N/A   Scattered Clouds
7:55 AM 60.1 °F 55.9 °F 86% 30.15 in 10.0 mi East 5.8 mph - N/A   Scattered Clouds
8:55 AM 64.0 °F 55.0 °F 73% 30.15 in 10.0 mi East 9.2 mph - N/A   Partly Cloudy
9:55 AM 66.0 °F 55.9 °F 70% 30.15 in 10.0 mi ESE 11.5 mph - N/A   Partly Cloudy
10:55 AM 68.0 °F 57.0 °F 68% 30.14 in 10.0 mi ESE 11.5 mph - N/A   Partly Cloudy
11:55 AM 69.1 °F 57.9 °F 68% 30.13 in 10.0 mi ESE 11.5 mph - N/A   Partly Cloudy
12:55 PM 70.0 °F 57.9 °F 65% 30.13 in 10.0 mi East 11.5 mph - N/A   Partly Cloudy
1:55 PM 69.1 °F 57.0 °F 65% 30.12 in 10.0 mi ESE 9.2 mph - N/A   Scattered Clouds
2:55 PM 73.0 °F 57.9 °F 59% 30.10 in 10.0 mi ESE 8.1 mph - N/A   Scattered Clouds
3:55 PM 73.9 °F 57.9 °F 57% 30.09 in 10.0 mi SE 10.4 mph - N/A   Scattered Clouds
4:55 PM 70.0 °F 57.0 °F 63% 30.09 in 10.0 mi ESE 11.5 mph - N/A   Scattered Clouds
5:55 PM 69.1 °F 57.9 °F 68% 30.08 in 10.0 mi East 8.1 mph - N/A   Partly Cloudy
6:55 PM 66.9 °F 55.9 °F 68% 30.08 in 10.0 mi ESE 8.1 mph - N/A   Partly Cloudy
7:55 PM 64.9 °F 55.0 °F 70% 30.08 in 10.0 mi ESE 8.1 mph - N/A   Partly Cloudy
8:55 PM 62.1 °F 54.0 °F 75% 30.09 in 10.0 mi ESE 6.9 mph - N/A   Partly Cloudy
9:55 PM 62.1 °F 53.1 °F 72% 30.09 in 10.0 mi ESE 5.8 mph - N/A   Partly Cloudy
10:55 PM 61.0 °F 52.0 °F 72% 30.09 in 10.0 mi East 5.8 mph - N/A   Clear
11:55 PM 60.1 °F 52.0 °F 75% 30.09 in 10.0 mi East 4.6 mph - N/A   Scattered Clouds